Location: Holyhead Bay
(53.3667°N, 4.6667°W)
Time: 19:28:42
(UTC+00:00)

Cosmos 2322 Rocket - Pass Details

Date: 24 November 2020
Orbit: 834 x 849 km, 71.0° (Epoch: 16 January)

Event Time Altitude Azimuth Distance (km) Brightness Sun altitude
Rises 16:43:34 0° 231° (SW) 3,405 7.5 -5.1°
Reaches altitude 10° 16:46:07 10° 236° (WSW) 2,472 6.5 -5.4°
Maximum altitude 16:51:36 48° 311° (NW) 1,096 3.0 -6.1°
Drops below altitude 10° 16:57:06 10° 26° (NNE) 2,476 4.2 -6.9°
Enters shadow 16:58:53 - 31° (NNE) 3,127 4.7 -7.1°
